This is the latest recevied weather packets stored in our database for station/object N4QD-13. If no packets are shown the sender has not sent any weather packets the latest 10 day(s).
| Time | Temp. | Humidity | Pressure | Rain* | Wind** | Luminosity | Snow |
|---|---|---|---|---|---|---|---|
| 1778023544 | 23.89° C | 38% | 1011.4 hPa | 0 mm | - | 49 W/m² | - |
| 1778023241 | 24.44° C | 38% | 1011.8 hPa | 0 mm | - | 56 W/m² | - |
| 1778022937 | 24.44° C | 37% | 1011.4 hPa | 0 mm | - | 47 W/m² | - |
| 1778022636 | 24.44° C | 38% | 1011.5 hPa | 0 mm | - | 46 W/m² | - |
| 1778022333 | 24.44° C | 37% | 1011.3 hPa | 0 mm | - | 64 W/m² | - |
| 1778022030 | 24.44° C | 37% | 1011.4 hPa | 0 mm | - | 77 W/m² | - |
| 1778021727 | 25° C | 36% | 1011.3 hPa | 0 mm | - | 91 W/m² | - |
| 1778021423 | 25° C | 36% | 1011.4 hPa | 0 mm | - | 108 W/m² | - |
| 1778021120 | 25° C | 36% | 1011.4 hPa | 0 mm | - | 98 W/m² | - |
| 1778020817 | 25° C | 36% | 1011.5 hPa | 0 mm | - | 91 W/m² | - |
| 1778020514 | 25° C | 36% | 1011.4 hPa | 0 mm | - | 78 W/m² | - |
| 1778020210 | 25° C | 36% | 1011.4 hPa | 0 mm | - | 67 W/m² | - |
| 1778019907 | 25° C | 36% | 1011.6 hPa | 0 mm | - | 60 W/m² | - |
| 1778019602 | 25.56° C | 36% | 1011.5 hPa | 0 mm | - | 69 W/m² | - |
| 1778019300 | 26.11° C | 34% | 1011.5 hPa | 0 mm | - | 119 W/m² | - |
| 1778018997 | 25.56° C | 36% | 1011.7 hPa | 0 mm | - | 215 W/m² | - |
| 1778018694 | 25.56° C | 35% | 1011.5 hPa | 0 mm | - | 166 W/m² | - |
| 1778018391 | 26.11° C | 35% | 1011.7 hPa | 0 mm | - | 204 W/m² | - |
| 1778018089 | 25.56° C | 36% | 1011.5 hPa | 0 mm | - | 242 W/m² | - |
| 1778017787 | 26.11° C | 35% | 1011.4 hPa | 0 mm | - | 222 W/m² | - |
| 1778017485 | 25.56° C | 36% | 1011.5 hPa | 0 mm | - | 332 W/m² | - |
| 1778017182 | 25.56° C | 36% | 1011.3 hPa | 0 mm | - | 257 W/m² | - |
| 1778016879 | 25.56° C | 37% | 1011.4 hPa | 0 mm | - | 164 W/m² | - |
| 1778016575 | 26.11° C | 36% | 1011.1 hPa | 0 mm | - | 153 W/m² | - |
| 1778016272 | 26.67° C | 35% | 1011.2 hPa | 0 mm | - | 298 W/m² | - |
* Rain latest hour (hover to see other rain measurements)
** Current wind speed in m/s (hover to see current wind gust speed)